Flag for Austria Weather past 2 weeks in Waidhofen an der Thaya, Lower Austria, Austria

Now
56 °F

Cool.


Feels Like: 56 °F
Forecast: 49 / 56 °F
Wind: 5 mph from North

Location: Retz

Current Time: May 23, 2015 at 12:57:30 PM

Latest Report: May 23, 2015 at 12:00 PM


Visibility: N/A

Pressure: 29.96 "Hg

Humidity: 71%

Dew point: 47 °F

Location of Waidhofen an der ThayaLocation

Historic Weather in Waidhofen an der Thaya — Graph

°F

Waidhofen an der Thaya temperature yesterday

Maximum temperature yesterday: 62 °F (at 12:00 PM)
Minimum temperature yesterday: 51 °F (at 6:00 AM)
Average temperature yesterday: 56 °F

Past Weeks' High & Low Weather Summary

 TemperatureHumidityPressure
High74 °F (May 12, 5:00 PM)94% (May 21, 2:00 AM)30.41 "Hg (May 21, 2:00 AM)
Low45 °F (May 11, 6:00 AM)26% (May 11, 3:00 PM)29.72 "Hg (May 19, 6:00 AM)
Average59 °F63%30.04 "Hg
* Reported May 8 11:00 AM — May 23 11:00 AM, Waidhofen an der Thaya, Weather by CustomWeather, © 2015

Note: Actual official high and low records may vary slightly from our data, if they occured in-between our weather recording intervals... More about our weather records

Advertising

Waidhofen an der Thaya weather history for previous 24 hours

 ConditionsComfort  
Time TempWeatherWind HumidityBarometerVisibility
11:00 AM
Sat, May 23
56 °FCool.3 mph74%29.96 "HgN/A
10:00 AM54 °FCool.3 mph82%29.98 "HgN/A
9:00 AM53 °FCool.5 mph86%29.98 "HgN/A
8:00 AM53 °FLight rain. Overcast.3 mph81%29.99 "Hg11 mi
7:00 AM52 °FOvercast.3 mph83%29.99 "Hg11 mi
6:00 AM54 °FCool.5 mph72%29.99 "HgN/A
4:00 AM53 °FCool.5 mph77%30.02 "HgN/A
3:00 AM53 °FCool.5 mph80%30.03 "HgN/A
2:00 AM52 °FCool.3 mph85%30.06 "HgN/A
1:00 AM53 °FCool.3 mph81%30.07 "HgN/A
12:00 AM56 °FCool.6 mph69%30.08 "HgN/A
10:00 PM
Fri, May 22
56 °FCool.5 mph66%30.09 "HgN/A
9:00 PM57 °FCool.5 mph64%30.10 "HgN/A
8:00 PM57 °FOvercast.6 mph64%30.11 "Hg12 mi
7:00 PM57 °FCool.6 mph66%30.11 "HgN/A
6:00 PM58 °FCool.7 mph61%30.12 "HgN/A
5:00 PM58 °FCool.6 mph62%30.13 "HgN/A
4:00 PM59 °FSprinkles. Cloudy.6 mph63%30.15 "HgN/A
3:00 PM58 °FCool.3 mph69%30.16 "HgN/A
2:00 PM60 °FOvercast.6 mph55%30.16 "Hg12 mi
1:00 PM60 °FRefreshingly cool.7 mph55%30.17 "HgN/A
12:00 PM62 °FRefreshingly cool.8 mph50%30.17 "HgN/A
Weather by CustomWeather, © 2015

See weather overviewHow to use our weather pages